| time (UTC) | temp C | wind direction | speed KPH | gust KPH | rain 1hr cm | rain 24hr cm | rain mn cm | humidity % | barometer mb |
| 20260906141542 | 28 | 140 | 11.3 | 17.7 | 0.00 | 0.00 | 0.00 | 83 | 1013.3 |
| 20260906140042 | 28 | 141 | 8.0 | 14.5 | 0.00 | 0.00 | 0.00 | 84 | 1013.2 |
| 20260906134539 | 28 | 127 | 6.4 | 12.9 | 0.00 | 0.00 | 0.00 | 84 | 1013.0 |
| 20260906133030 | 27 | 121 | 1.6 | 11.3 | 0.00 | 0.00 | 0.00 | 86 | 1013.1 |
| 20260906131527 | 27 | 113 | 4.8 | 14.5 | 0.00 | 0.00 | 0.00 | 88 | 1013.0 |
| 20260906130029 | 26 | 60 | 1.6 | 11.3 | 0.00 | 0.00 | 0.00 | 89 | 1013.1 |
| 20260906124521 | 26 | 99 | 3.2 | 8.0 | 0.00 | 0.00 | 0.00 | 89 | 1013.1 |
| 20260906123029 | 26 | 146 | 3.2 | 11.3 | 0.00 | 0.00 | 0.00 | 89 | 1012.8 |
| 20260906121530 | 26 | 104 | 3.2 | 9.7 | 0.00 | 0.00 | 0.00 | 89 | 1012.6 |
| 20260906120013 | 26 | 122 | 1.6 | 9.7 | 0.00 | 0.00 | 0.00 | 89 | 1012.7 |
| 20260906114511 | 26 | 48 | 1.6 | 9.7 | 0.00 | 0.00 | 0.00 | 89 | 1012.4 |
| 20260906113029 | 26 | 100 | 3.2 | 6.4 | 0.00 | 0.00 | 0.00 | 88 | 1012.0 |
| 20260906111511 | 26 | 93 | 3.2 | 9.7 | 0.00 | 0.00 | 0.00 | 88 | 1011.8 |
| 20260906110009 | 26 | 119 | 4.8 | 11.3 | 0.00 | 0.00 | 0.00 | 88 | 1011.8 |
| 20260906104511 | 26 | 98 | 1.6 | 6.4 | 0.00 | 0.00 | 0.00 | 88 | 1011.6 |
| 20260906103007 | 26 | 70 | 3.2 | 8.0 | 0.00 | 0.00 | 0.00 | 88 | 1011.5 |
| 20260906101507 | 26 | 105 | 3.2 | 12.9 | 0.00 | 0.00 | 0.00 | 87 | 1011.4 |
| 20260906100013 | 26 | 131 | 1.6 | 6.4 | 0.00 | 0.00 | 0.00 | 87 | 1011.6 |
| 20260906094505 | 26 | 139 | 1.6 | 6.4 | 0.00 | 0.00 | 0.00 | 87 | 1011.5 |
| 20260906093004 | 26 | 112 | 3.2 | 9.7 | 0.00 | 0.00 | 0.00 | 87 | 1011.4 |
| 20260906091505 | 26 | 107 | 1.6 | 8.0 | 0.00 | 0.00 | 0.00 | 87 | 1011.3 |
| 20260906090002 | 26 | 73 | 8.0 | 12.9 | 0.00 | 0.00 | 0.00 | 86 | 1011.4 |
| 20260906084502 | 26 | 78 | 0.0 | 6.4 | 0.00 | 0.00 | 0.00 | 86 | 1011.4 |
| 20260906083100 | 26 | 104 | 1.6 | 11.3 | 0.00 | 0.00 | 0.00 | 86 | 1011.4 |
| 20260906081612 | 26 | 107 | 3.2 | 12.9 | 0.00 | 0.00 | 0.00 | 85 | 1011.3 |
| 20260906080055 | 26 | 105 | 3.2 | 12.9 | 0.00 | 0.00 | 0.00 | 85 | 1011.5 |
| 20260906074610 | 26 | 144 | 8.0 | 14.5 | 0.00 | 0.00 | 0.00 | 85 | 1011.7 |
| 20260906073053 | 26 | 104 | 4.8 | 14.5 | 0.00 | 0.00 | 0.00 | 84 | 1011.8 |
| 20260906071652 | 26 | 92 | 3.2 | 14.5 | 0.00 | 0.00 | 0.00 | 84 | 1011.9 |
| 20260906070050 | 26 | 85 | 6.4 | 12.9 | 0.00 | 0.00 | 0.00 | 83 | 1012.0 |
| 20260906064549 | 27 | 178 | 4.8 | 11.3 | 0.00 | 0.00 | 0.00 | 83 | 1012.0 |
| 20260906063048 | 27 | 105 | 1.6 | 14.5 | 0.00 | 0.00 | 0.00 | 83 | 1012.2 |
| 20260906061545 | 27 | 83 | 6.4 | 14.5 | 0.00 | 0.00 | 0.00 | 82 | 1012.3 |
| 20260906060042 | 27 | 80 | 6.4 | 14.5 | 0.00 | 0.00 | 0.00 | 81 | 1012.6 |
| 20260906054542 | 27 | 128 | 6.4 | 16.1 | 0.00 | 0.00 | 0.00 | 80 | 1012.9 |
| 20260906053041 | 27 | 77 | 9.7 | 17.7 | 0.00 | 0.00 | 0.00 | 80 | 1012.8 |
| 20260906051547 | 27 | 78 | 4.8 | 16.1 | 0.00 | 0.00 | 0.00 | 79 | 1012.9 |
| 20260906050140 | 27 | 77 | 4.8 | 14.5 | 0.00 | 0.00 | 0.00 | 78 | 1013.0 |
| 20260906044539 | 27 | 119 | 4.8 | 17.7 | 0.00 | 0.00 | 0.00 | 78 | 1013.0 |
| 20260906043039 | 27 | 68 | 6.4 | 14.5 | 0.00 | 0.00 | 0.00 | 78 | 1012.8 |
| 20260906041542 | 27 | 76 | 4.8 | 12.9 | 0.00 | 0.00 | 0.00 | 78 | 1012.6 |
| 20260906040042 | 27 | 120 | 3.2 | 9.7 | 0.00 | 0.00 | 0.00 | 78 | 1012.8 |
| 20260906034537 | 27 | 88 | 3.2 | 9.7 | 0.00 | 0.00 | 0.00 | 77 | 1012.5 |
| 20260906033045 | 27 | 105 | 4.8 | 12.9 | 0.00 | 0.00 | 0.00 | 77 | 1012.5 |
| 20260906031544 | 27 | 29 | 4.8 | 16.1 | 0.00 | 0.00 | 0.00 | 77 | 1012.4 |
| 20260906030038 | 27 | 63 | 3.2 | 9.7 | 0.00 | 0.00 | 0.00 | 76 | 1012.2 |
| 20260906024637 | 27 | 90 | 1.6 | 9.7 | 0.00 | 0.00 | 0.00 | 76 | 1012.1 |
| 20260906023037 | 27 | 44 | 3.2 | 11.3 | 0.00 | 0.00 | 0.00 | 76 | 1012.2 |
| 20260906021533 | 27 | 111 | 3.2 | 12.9 | 0.00 | 0.00 | 0.00 | 76 | 1012.0 |
| 20260906020033 | 27 | 89 | 8.0 | 14.5 | 0.00 | 0.00 | 0.00 | 76 | 1012.0 |
| 20260906014533 | 27 | 132 | 4.8 | 12.9 | 0.00 | 0.00 | 0.00 | 76 | 1011.5 |
| 20260906013032 | 27 | 360 | 3.2 | 6.4 | 0.00 | 0.00 | 0.00 | 75 | 1011.4 |
| 20260906011536 | 27 | 103 | 0.0 | 11.3 | 0.00 | 0.00 | 0.00 | 75 | 1011.3 |
| 20260906004530 | 28 | 123 | 8.0 | 14.5 | 0.00 | 0.00 | 0.00 | 73 | 1011.4 |
| 20260906003030 | 28 | 113 | 12.9 | 20.9 | 0.00 | 0.00 | 0.00 | 72 | 1011.4 |
| 20260906001529 | 30 | 130 | 16.1 | 35.4 | 0.00 | 0.00 | 0.00 | 70 | 1011.1 |
| 20260906000028 | 32 | 69 | 27.4 | 33.8 | 0.00 | 0.00 | 0.00 | 72 | 1011.1 |
| 20260905234528 | 32 | 49 | 27.4 | 38.6 | 0.00 | 0.08 | 0.00 | 71 | 1011.1 |
| 20260905233028 | 32 | 44 | 25.7 | 33.8 | 0.00 | 0.08 | 0.00 | 71 | 1010.1 |
| 20260905231526 | 32 | 48 | 20.9 | 32.2 | 0.00 | 0.08 | 0.00 | 70 | 1010.7 |
| 20260905230028 | 32 | 41 | 22.5 | 32.2 | 0.00 | 0.08 | 0.00 | 70 | 1010.8 |
| 20260905224533 | 32 | 11 | 19.3 | 33.8 | 0.00 | 0.08 | 0.00 | 70 | 1010.2 |
| 20260905223024 | 33 | 360 | 20.9 | 33.8 | 0.00 | 0.08 | 0.00 | 70 | 1009.7 |
| 20260905221523 | 33 | 38 | 24.1 | 37.0 | 0.00 | 0.08 | 0.00 | 69 | 1010.0 |
| 20260905220023 | 33 | 24 | 20.9 | 30.6 | 0.00 | 0.08 | 0.00 | 68 | 1010.1 |
| 20260905214520 | 34 | 24 | 16.1 | 29.0 | 0.00 | 0.08 | 0.00 | 67 | 1009.9 |
| 20260905213017 | 34 | 347 | 12.9 | 25.7 | 0.00 | 0.08 | 0.00 | 67 | 1009.8 |
| 20260905211513 | 35 | 19 | 17.7 | 29.0 | 0.00 | 0.08 | 0.00 | 60 | 1009.9 |
| 20260905210012 | 34 | 51 | 14.5 | 24.1 | 0.00 | 0.08 | 0.00 | 59 | 1009.9 |
| 20260905204516 | 35 | 61 | 17.7 | 25.7 | 0.00 | 0.08 | 0.00 | 60 | 1010.0 |
| 20260905203009 | 34 | 63 | 11.3 | 25.7 | 0.00 | 0.08 | 0.00 | 60 | 1010.3 |
| 20260905201509 | 35 | 30 | 12.9 | 20.9 | 0.00 | 0.08 | 0.00 | 61 | 1010.4 |
| 20260905200007 | 34 | 74 | 8.0 | 22.5 | 0.00 | 0.08 | 0.00 | 62 | 1010.5 |
| 20260905193004 | 35 | 63 | 16.1 | 24.1 | 0.00 | 0.08 | 0.00 | 60 | 1010.9 |
| 20260905191559 | 34 | 54 | 6.4 | 16.1 | 0.00 | 0.08 | 0.00 | 61 | 1011.0 |
| 20260905190056 | 33 | 75 | 9.7 | 19.3 | 0.00 | 0.08 | 0.00 | 64 | 1011.2 |
| 20260905184559 | 33 | 170 | 3.2 | 11.3 | 0.00 | 0.08 | 0.00 | 65 | 1011.3 |
| 20260905183055 | 33 | 81 | 12.9 | 20.9 | 0.00 | 0.08 | 0.00 | 66 | 1011.7 |
| 20260905181603 | 33 | 101 | 6.4 | 14.5 | 0.00 | 0.08 | 0.00 | 67 | 1011.9 |
| 20260905180046 | 33 | 115 | 6.4 | 14.5 | 0.00 | 0.08 | 0.00 | 68 | 1012.2 |
| 20260905174550 | 33 | 142 | 4.8 | 16.1 | 0.00 | 0.08 | 0.00 | 68 | 1012.4 |
| 20260905173041 | 32 | 136 | 8.0 | 17.7 | 0.00 | 0.08 | 0.00 | 71 | 1012.7 |
| 20260905171543 | 31 | 134 | 3.2 | 16.1 | 0.00 | 0.08 | 0.00 | 73 | 1013.0 |
| 20260905170036 | 31 | 100 | 4.8 | 16.1 | 0.00 | 0.08 | 0.00 | 75 | 1013.3 |
| 20260905164536 | 31 | 5 | 6.4 | 12.9 | 0.00 | 0.08 | 0.00 | 77 | 1013.6 |
| 20260905163028 | 30 | 129 | 6.4 | 14.5 | 0.00 | 0.08 | 0.00 | 80 | 1013.9 |
| 20260905161526 | 29 | 102 | 6.4 | 12.9 | 0.00 | 0.08 | 0.00 | 81 | 1014.0 |
| 20260905160041 | 30 | 112 | 3.2 | 11.3 | 0.00 | 0.08 | 0.00 | 81 | 1014.1 |
| 20260905154524 | 29 | 136 | 6.4 | 14.5 | 0.00 | 0.08 | 0.00 | 81 | 1014.1 |
| 20260905153023 | 29 | 139 | 8.0 | 16.1 | 0.00 | 0.08 | 0.00 | 82 | 1014.2 |
| 20260905151521 | 29 | 123 | 6.4 | 14.5 | 0.00 | 0.08 | 0.00 | 83 | 1014.2 |
| 20260905150017 | 28 | 103 | 4.8 | 11.3 | 0.00 | 0.08 | 0.00 | 84 | 1014.1 |
| 20260905144513 | 28 | 72 | 8.0 | 14.5 | 0.00 | 0.08 | 0.00 | 84 | 1014.1 |